Zurück zum Katalog

STARLINK-34095

AktivKommunikationVLEO
NORAD 63809·PAYLOAD·🇺🇸 United States

Gestartet May 4, 2025 von Cape Canaveral Space Force Station

Loading…

Nächste Überflüge (nächste 24 Stunden)

TLE

AktuellSource: CelesTrak SupGP

Epoche: Sep 14, 2026, 21:42 UTC

1 63809C 25092F   26257.90465278 -.00018760  00000+0 -67938-3 0  2573
2 63809  43.0003 184.3731 0001313 265.4626 248.0620 15.27593010    10

Verfolge STARLINK-34095 in Echtzeit mit AllMySat

Download on the App Store